TimePST,TemperatureF,Dew PointF,Humidity,Sea Level PressureIn,VisibilityMPH,Wind Direction,Wind SpeedMPH,Gust SpeedMPH,PrecipitationIn,Events,Conditions,WindDirDegrees,DateUTC
12:53 AM,23.0,14.0,68,30.32,10.0,WSW,3.5,-,N/A,,Clear,250,2014-01-04 08:53:00
1:53 AM,19.9,12.9,74,30.33,10.0,WNW,8.1,-,N/A,,Clear,290,2014-01-04 09:53:00
2:53 AM,18.0,12.0,78,30.37,10.0,West,6.9,-,N/A,,Clear,280,2014-01-04 10:53:00
3:53 AM,17.1,10.9,77,30.38,10.0,West,8.1,-,N/A,,Clear,280,2014-01-04 11:53:00
4:53 AM,19.0,12.0,74,30.39,10.0,WNW,10.4,-,N/A,,Clear,290,2014-01-04 12:53:00
5:53 AM,19.0,10.9,71,30.41,10.0,West,10.4,-,N/A,,Clear,270,2014-01-04 13:53:00
6:53 AM,15.1,9.0,77,30.43,10.0,WNW,6.9,-,N/A,,Clear,300,2014-01-04 14:53:00
7:53 AM,17.1,10.0,74,30.45,10.0,West,5.8,-,N/A,,Clear,280,2014-01-04 15:53:00
8:53 AM,23.0,14.0,68,30.47,10.0,WNW,3.5,-,N/A,,Clear,290,2014-01-04 16:53:00
9:53 AM,30.9,18.0,59,30.48,10.0,West,3.5,-,N/A,,Clear,280,2014-01-04 17:53:00
10:53 AM,35.1,19.0,52,30.50,10.0,Calm,Calm,-,N/A,,Clear,0,2014-01-04 18:53:00
11:53 AM,39.0,19.0,45,30.47,10.0,Calm,Calm,-,N/A,,Clear,0,2014-01-04 19:53:00
12:53 PM,41.0,19.0,41,30.45,10.0,Calm,Calm,-,N/A,,Clear,0,2014-01-04 20:53:00
1:53 PM,42.1,19.9,41,30.45,10.0,ESE,5.8,-,N/A,,Clear,110,2014-01-04 21:53:00
2:53 PM,43.0,19.0,38,30.45,10.0,SE,5.8,-,N/A,,Clear,130,2014-01-04 22:53:00
3:53 PM,41.0,19.0,41,30.45,10.0,ESE,4.6,-,N/A,,Clear,110,2014-01-04 23:53:00
4:53 PM,30.9,16.0,54,30.45,10.0,South,4.6,-,N/A,,Clear,170,2014-01-05 00:53:00
5:53 PM,28.9,16.0,58,30.46,10.0,WSW,8.1,-,N/A,,Clear,250,2014-01-05 01:53:00
6:53 PM,21.9,12.9,68,30.48,10.0,West,6.9,-,N/A,,Clear,280,2014-01-05 02:53:00
7:53 PM,19.0,12.0,74,30.49,10.0,West,4.6,-,N/A,,Clear,260,2014-01-05 03:53:00
8:53 PM,18.0,12.0,78,30.48,10.0,West,4.6,-,N/A,,Clear,270,2014-01-05 04:53:00
9:53 PM,18.0,12.0,78,30.49,10.0,NW,4.6,-,N/A,,Clear,320,2014-01-05 05:53:00
10:53 PM,17.1,10.9,77,30.49,10.0,West,5.8,-,N/A,,Clear,280,2014-01-05 06:53:00
11:53 PM,17.1,10.9,77,30.48,10.0,WNW,3.5,-,N/A,,Clear,300,2014-01-05 07:53:00